Time,TemperatureF,DewpointF,PressureIn,WindDirection,WindDirectionDegrees,WindSpeedMPH,WindSpeedGustMPH,Humidity,HourlyPrecipIn,Conditions,Clouds,dailyrainin,SoftwareType,DateUTC
2013-06-15 00:01:00,86.9,43.5,29.68,West,261,0.0,0.0,22,0.00,,,0.00,Wunderground v.1.15,2013-06-15 07:01:00,
2013-06-15 00:07:00,87.1,42.4,29.68,WNW,282,0.0,1.0,21,0.00,,,0.00,Wunderground v.1.15,2013-06-15 07:07:00,
2013-06-15 00:13:00,87.4,41.4,29.68,ESE,118,0.0,0.0,20,0.00,,,0.00,Wunderground v.1.15,2013-06-15 07:13:00,
2013-06-15 00:18:00,87.4,41.4,29.68,East,86,0.0,1.0,20,0.00,,,0.00,Wunderground v.1.15,2013-06-15 07:18:00,
2013-06-15 00:23:00,87.4,41.4,29.68,ESE,118,0.0,0.0,20,0.00,,,0.00,Wunderground v.1.15,2013-06-15 07:23:00,
2013-06-15 00:28:00,87.3,41.3,29.68,ESE,121,0.0,0.0,20,0.00,,,0.00,Wunderground v.1.15,2013-06-15 07:28:00,
2013-06-15 00:33:00,87.0,39.7,29.68,ESE,121,0.0,0.0,19,0.00,,,0.00,Wunderground v.1.15,2013-06-15 07:33:00,
2013-06-15 00:38:00,86.4,40.6,29.68,ESE,121,0.0,0.0,20,0.00,,,0.00,Wunderground v.1.15,2013-06-15 07:38:00,
2013-06-15 00:43:00,85.4,47.6,29.68,North,4,1.0,1.0,27,0.00,,,0.00,Wunderground v.1.15,2013-06-15 07:43:00,
2013-06-15 00:49:00,83.0,47.5,29.68,North,355,1.0,3.0,29,0.00,,,0.00,Wunderground v.1.15,2013-06-15 07:49:00,
2013-06-15 00:54:00,81.9,48.3,29.68,NW,321,1.0,2.0,31,0.00,,,0.00,Wunderground v.1.15,2013-06-15 07:54:00,
2013-06-15 00:59:00,80.5,50.3,29.68,NNW,338,0.0,2.0,35,0.00,,,0.00,Wunderground v.1.15,2013-06-15 07:59:00,
2013-06-15 01:04:00,79.8,49.7,29.68,North,349,0.0,1.0,35,0.00,,,0.00,Wunderground v.1.15,2013-06-15 08:04:00,
2013-06-15 01:09:00,79.8,49.7,29.67,NNW,334,0.0,1.0,35,0.00,,,0.00,Wunderground v.1.15,2013-06-15 08:09:00,
2013-06-15 01:14:00,79.8,49.7,29.68,West,264,0.0,0.0,35,0.00,,,0.00,Wunderground v.1.15,2013-06-15 08:14:00,
2013-06-15 01:19:00,79.7,49.6,29.67,ENE,69,0.0,0.0,35,0.00,,,0.00,Wunderground v.1.15,2013-06-15 08:19:00,
2013-06-15 01:25:00,79.9,46.6,29.67,SE,139,0.0,0.0,31,0.00,,,0.00,Wunderground v.1.15,2013-06-15 08:25:00,
2013-06-15 01:30:00,80.7,45.5,29.67,ESE,122,0.0,0.0,29,0.00,,,0.00,Wunderground v.1.15,2013-06-15 08:30:00,
2013-06-15 01:35:00,80.4,45.2,29.67,North,359,0.0,2.0,29,0.00,,,0.00,Wunderground v.1.15,2013-06-15 08:35:00,
2013-06-15 01:40:00,78.1,51.1,29.67,NNE,20,1.0,1.0,39,0.00,,,0.00,Wunderground v.1.15,2013-06-15 08:40:00,
2013-06-15 01:45:00,77.0,48.7,29.67,ENE,63,0.0,1.0,37,0.00,,,0.00,Wunderground v.1.15,2013-06-15 08:45:00,
2013-06-15 01:50:00,77.7,46.3,29.67,ESE,113,0.0,0.0,33,0.00,,,0.00,Wunderground v.1.15,2013-06-15 08:50:00,
2013-06-15 01:55:00,78.6,44.6,29.67,ESE,113,0.0,0.0,30,0.00,,,0.00,Wunderground v.1.15,2013-06-15 08:55:00,
2013-06-15 02:01:00,79.0,44.0,29.67,ESE,104,0.0,0.0,29,0.00,,,0.00,Wunderground v.1.15,2013-06-15 09:01:00,
2013-06-15 02:06:00,77.5,47.7,29.67,ESE,103,0.0,1.0,35,0.00,,,0.00,Wunderground v.1.15,2013-06-15 09:06:00,
2013-06-15 02:11:00,77.4,44.4,29.67,ESE,103,0.0,0.0,31,0.00,,,0.00,Wunderground v.1.15,2013-06-15 09:11:00,
2013-06-15 02:16:00,77.7,45.5,29.67,East,101,0.0,1.0,32,0.00,,,0.00,Wunderground v.1.15,2013-06-15 09:16:00,
2013-06-15 02:21:00,77.8,47.9,29.68,North,352,0.0,0.0,35,0.00,,,0.00,Wunderground v.1.15,2013-06-15 09:21:00,
2013-06-15 02:26:00,77.1,49.5,29.68,NW,321,0.0,1.0,38,0.00,,,0.00,Wunderground v.1.15,2013-06-15 09:26:00,
2013-06-15 02:31:00,76.4,47.5,29.68,NW,312,0.0,0.0,36,0.00,,,0.00,Wunderground v.1.15,2013-06-15 09:31:00,
2013-06-15 02:36:00,76.4,42.7,29.68,WNW,302,0.0,0.0,30,0.00,,,0.00,Wunderground v.1.15,2013-06-15 09:36:00,
2013-06-15 02:41:00,77.4,38.8,29.68,NE,56,0.0,0.0,25,0.00,,,0.00,Wunderground v.1.15,2013-06-15 09:41:00,
2013-06-15 02:46:00,78.4,37.5,29.68,NNW,335,0.0,0.0,23,0.00,,,0.00,Wunderground v.1.15,2013-06-15 09:46:00,
2013-06-15 02:51:00,79.2,37.1,29.68,NW,311,0.0,0.0,22,0.00,,,0.00,Wunderground v.1.15,2013-06-15 09:51:00,
2013-06-15 02:56:00,79.9,38.8,29.68,North,1,0.0,1.0,23,0.00,,,0.00,Wunderground v.1.15,2013-06-15 09:56:00,
2013-06-15 03:01:00,80.6,39.4,29.68,NW,304,0.0,1.0,23,0.00,,,0.00,Wunderground v.1.15,2013-06-15 10:01:00,
2013-06-15 03:06:00,81.4,40.0,29.68,ESE,119,0.0,1.0,23,0.00,,,0.00,Wunderground v.1.15,2013-06-15 10:06:00,
2013-06-15 03:11:00,81.6,40.2,29.68,ESE,120,0.0,0.0,23,0.00,,,0.00,Wunderground v.1.15,2013-06-15 10:11:00,
2013-06-15 03:16:00,81.7,41.4,29.68,NW,314,0.0,1.0,24,0.00,,,0.00,Wunderground v.1.15,2013-06-15 10:16:00,
2013-06-15 03:21:00,82.0,41.6,29.68,East,101,0.0,1.0,24,0.00,,,0.00,Wunderground v.1.15,2013-06-15 10:21:00,
2013-06-15 03:26:00,82.3,41.9,29.68,East,95,0.0,1.0,24,0.00,,,0.00,Wunderground v.1.15,2013-06-15 10:26:00,
2013-06-15 03:31:00,82.5,42.1,29.68,SE,145,0.0,1.0,24,0.00,,,0.00,Wunderground v.1.15,2013-06-15 10:31:00,
2013-06-15 03:36:00,82.5,42.1,29.68,NNW,330,0.0,1.0,24,0.00,,,0.00,Wunderground v.1.15,2013-06-15 10:36:00,
2013-06-15 03:41:00,82.5,42.1,29.68,ESE,110,0.0,1.0,24,0.00,,,0.00,Wunderground v.1.15,2013-06-15 10:41:00,
2013-06-15 03:46:00,82.5,43.1,29.69,WNW,295,0.0,1.0,25,0.00,,,0.00,Wunderground v.1.15,2013-06-15 10:46:00,
2013-06-15 03:51:00,82.3,43.0,29.69,WNW,295,0.0,0.0,25,0.00,,,0.00,Wunderground v.1.15,2013-06-15 10:51:00,
2013-06-15 03:56:00,82.0,42.7,29.69,WNW,295,0.0,1.0,25,0.00,,,0.00,Wunderground v.1.15,2013-06-15 10:56:00,
2013-06-15 04:02:00,81.8,42.5,29.69,WNW,298,0.0,0.0,25,0.00,,,0.00,Wunderground v.1.15,2013-06-15 11:02:00,
2013-06-15 04:07:00,81.7,42.4,29.69,ESE,103,0.0,1.0,25,0.00,,,0.00,Wunderground v.1.15,2013-06-15 11:07:00,
2013-06-15 04:12:00,81.9,42.6,29.69,ESE,104,2.0,2.0,25,0.00,,,0.00,Wunderground v.1.15,2013-06-15 11:12:00,
2013-06-15 04:17:00,82.5,43.1,29.69,ESE,117,0.0,2.0,25,0.00,,,0.00,Wunderground v.1.15,2013-06-15 11:17:00,
2013-06-15 04:22:00,82.8,43.4,29.69,ESE,106,0.0,1.0,25,0.00,,,0.00,Wunderground v.1.15,2013-06-15 11:22:00,
2013-06-15 04:27:00,82.9,43.5,29.69,ESE,113,0.0,2.0,25,0.00,,,0.00,Wunderground v.1.15,2013-06-15 11:27:00,
2013-06-15 04:32:00,83.0,43.5,29.70,East,94,1.0,2.0,25,0.00,,,0.00,Wunderground v.1.15,2013-06-15 11:32:00,
2013-06-15 04:37:00,83.1,42.6,29.70,East,90,0.0,2.0,24,0.00,,,0.00,Wunderground v.1.15,2013-06-15 11:37:00,
2013-06-15 04:42:00,82.9,42.4,29.70,ESE,111,0.0,0.0,24,0.00,,,0.00,Wunderground v.1.15,2013-06-15 11:42:00,
2013-06-15 04:47:00,82.4,42.0,29.70,East,81,0.0,1.0,24,0.00,,,0.00,Wunderground v.1.15,2013-06-15 11:47:00,
2013-06-15 04:52:00,82.2,41.8,29.70,East,97,0.0,0.0,24,0.00,,,0.00,Wunderground v.1.15,2013-06-15 11:52:00,
2013-06-15 04:57:00,82.1,41.7,29.70,ESE,113,1.0,1.0,24,0.00,,,0.00,Wunderground v.1.15,2013-06-15 11:57:00,
2013-06-15 05:02:00,81.8,40.4,29.71,ESE,120,0.0,1.0,23,0.00,,,0.00,Wunderground v.1.15,2013-06-15 12:02:00,
2013-06-15 05:07:00,81.6,40.2,29.71,ESE,102,0.0,1.0,23,0.00,,,0.00,Wunderground v.1.15,2013-06-15 12:07:00,
2013-06-15 05:12:00,81.8,40.4,29.71,ESE,117,1.0,1.0,23,0.00,,,0.00,Wunderground v.1.15,2013-06-15 12:12:00,
2013-06-15 05:17:00,81.8,42.5,29.71,NW,321,1.0,1.0,25,0.00,,,0.00,Wunderground v.1.15,2013-06-15 12:17:00,
2013-06-15 05:22:00,79.0,48.2,29.71,NNE,25,1.0,2.0,34,0.00,,,0.00,Wunderground v.1.15,2013-06-15 12:22:00,
2013-06-15 05:27:00,76.7,46.2,29.71,ENE,71,0.0,2.0,34,0.00,,,0.00,Wunderground v.1.15,2013-06-15 12:27:00,
2013-06-15 05:32:00,76.0,43.2,29.71,WNW,287,0.0,0.0,31,0.00,,,0.00,Wunderground v.1.15,2013-06-15 12:32:00,
2013-06-15 05:37:00,76.2,45.8,29.71,West,276,0.0,0.0,34,0.00,,,0.00,Wunderground v.1.15,2013-06-15 12:37:00,
2013-06-15 05:42:00,75.5,51.4,29.72,NNW,345,1.0,3.0,43,0.00,,,0.00,Wunderground v.1.15,2013-06-15 12:42:00,
2013-06-15 05:47:00,72.7,51.3,29.72,NNW,345,0.0,3.0,47,0.00,,,0.00,Wunderground v.1.15,2013-06-15 12:47:00,
2013-06-15 05:52:00,71.6,51.4,29.72,NNW,328,0.0,1.0,49,0.00,,,0.00,Wunderground v.1.15,2013-06-15 12:52:00,
2013-06-15 05:57:00,71.2,51.6,29.73,North,351,0.0,2.0,50,0.00,,,0.00,Wunderground v.1.15,2013-06-15 12:57:00,
2013-06-15 06:02:00,70.9,50.8,29.73,North,8,1.0,3.0,49,0.00,,,0.00,Wunderground v.1.15,2013-06-15 13:02:00,
2013-06-15 06:07:00,71.2,51.1,29.73,NNE,13,0.0,3.0,49,0.00,,,0.00,Wunderground v.1.15,2013-06-15 13:07:00,
2013-06-15 06:12:00,72.1,51.3,29.73,NNE,14,0.0,1.0,48,0.00,,,0.00,Wunderground v.1.15,2013-06-15 13:12:00,
2013-06-15 06:17:00,73.1,52.2,29.73,NNE,13,0.0,1.0,48,0.00,,,0.00,Wunderground v.1.15,2013-06-15 13:17:00,
2013-06-15 06:22:00,74.0,51.9,29.74,NNE,13,1.0,1.0,46,0.00,,,0.00,Wunderground v.1.15,2013-06-15 13:22:00,
2013-06-15 06:27:00,74.8,52.0,29.74,NNE,13,0.0,1.0,45,0.00,,,0.00,Wunderground v.1.15,2013-06-15 13:27:00,
2013-06-15 06:32:00,75.5,52.1,29.74,NNE,13,0.0,0.0,44,0.00,,,0.00,Wunderground v.1.15,2013-06-15 13:32:00,
2013-06-15 06:37:00,76.8,52.0,29.74,NNE,13,0.0,0.0,42,0.00,,,0.00,Wunderground v.1.15,2013-06-15 13:37:00,
2013-06-15 06:42:00,77.9,52.3,29.74,NNE,13,0.0,0.0,41,0.00,,,0.00,Wunderground v.1.15,2013-06-15 13:42:00,
2013-06-15 06:47:00,78.6,52.3,29.75,NNE,13,0.0,0.0,40,0.00,,,0.00,Wunderground v.1.15,2013-06-15 13:47:00,
2013-06-15 06:52:00,79.5,50.9,29.75,North,10,0.0,0.0,37,0.00,,,0.00,Wunderground v.1.15,2013-06-15 13:52:00,
2013-06-15 06:57:00,80.1,51.5,29.75,North,10,0.0,0.0,37,0.00,,,0.00,Wunderground v.1.15,2013-06-15 13:57:00,
2013-06-15 07:03:00,80.8,51.4,29.75,North,11,0.0,0.0,36,0.00,,,0.00,Wunderground v.1.15,2013-06-15 14:03:00,
2013-06-15 07:08:00,80.3,51.7,29.75,NW,304,0.0,0.0,37,0.00,,,0.00,Wunderground v.1.15,2013-06-15 14:08:00,
2013-06-15 07:13:00,80.1,51.5,29.75,West,266,0.0,0.0,37,0.00,,,0.00,Wunderground v.1.15,2013-06-15 14:13:00,
2013-06-15 07:18:00,80.3,50.9,29.75,WSW,248,0.0,1.0,36,0.00,,,0.00,Wunderground v.1.15,2013-06-15 14:18:00,
2013-06-15 07:23:00,80.7,52.0,29.75,West,263,1.0,2.0,37,0.00,,,0.00,Wunderground v.1.15,2013-06-15 14:23:00,
2013-06-15 07:28:00,80.7,52.7,29.76,West,274,2.0,2.0,38,0.00,,,0.00,Wunderground v.1.15,2013-06-15 14:28:00,
2013-06-15 07:33:00,80.8,54.2,29.75,West,271,1.0,3.0,40,0.00,,,0.00,Wunderground v.1.15,2013-06-15 14:33:00,
2013-06-15 07:38:00,80.9,57.6,29.76,WSW,257,1.0,3.0,45,0.00,,,0.00,Wunderground v.1.15,2013-06-15 14:38:00,
2013-06-15 07:43:00,80.8,61.0,29.75,NW,318,1.0,2.0,51,0.00,,,0.00,Wunderground v.1.15,2013-06-15 14:43:00,
2013-06-15 07:48:00,81.0,59.5,29.76,NNW,339,0.0,2.0,48,0.00,,,0.00,Wunderground v.1.15,2013-06-15 14:48:00,
2013-06-15 07:53:00,81.7,58.3,29.76,North,354,0.0,1.0,45,0.00,,,0.00,Wunderground v.1.15,2013-06-15 14:53:00,
2013-06-15 07:58:00,83.1,56.3,29.76,North,352,0.0,1.0,40,0.00,,,0.00,Wunderground v.1.15,2013-06-15 14:58:00,
2013-06-15 08:03:00,83.8,58.3,29.76,North,353,0.0,2.0,42,0.00,,,0.00,Wunderground v.1.15,2013-06-15 15:03:00,
2013-06-15 08:08:00,83.7,58.8,29.76,NNW,337,0.0,2.0,43,0.00,,,0.00,Wunderground v.1.15,2013-06-15 15:08:00,
2013-06-15 08:13:00,83.8,56.9,29.76,NW,324,2.0,2.0,40,0.00,,,0.00,Wunderground v.1.15,2013-06-15 15:13:00,
2013-06-15 08:18:00,84.0,57.1,29.76,NNW,332,1.0,2.0,40,0.00,,,0.00,Wunderground v.1.15,2013-06-15 15:18:00,
2013-06-15 08:23:00,84.5,59.5,29.76,NW,307,1.0,2.0,43,0.00,,,0.00,Wunderground v.1.15,2013-06-15 15:23:00,
2013-06-15 08:28:00,84.9,61.8,29.76,North,360,0.0,2.0,46,0.00,,,0.00,Wunderground v.1.15,2013-06-15 15:28:00,
2013-06-15 08:33:00,85.4,58.3,29.76,North,356,2.0,3.0,40,0.00,,,0.00,Wunderground v.1.15,2013-06-15 15:33:00,
2013-06-15 08:38:00,85.8,60.1,29.76,NW,316,2.0,3.0,42,0.00,,,0.00,Wunderground v.1.15,2013-06-15 15:38:00,
2013-06-15 08:43:00,85.8,62.6,29.76,NW,304,2.0,3.0,46,0.00,,,0.00,Wunderground v.1.15,2013-06-15 15:43:00,
2013-06-15 08:48:00,86.7,51.6,29.76,SW,233,5.0,6.0,30,0.00,,,0.00,Wunderground v.1.15,2013-06-15 15:48:00,
2013-06-15 08:53:00,88.4,53.0,29.76,WSW,255,4.0,8.0,30,0.00,,,0.00,Wunderground v.1.15,2013-06-15 15:53:00,
2013-06-15 08:58:00,89.2,47.7,29.76,WSW,257,6.0,8.0,24,0.00,,,0.00,Wunderground v.1.15,2013-06-15 15:58:00,
2013-06-15 09:03:00,90.0,44.8,29.76,WSW,249,6.0,9.0,21,0.00,,,0.00,Wunderground v.1.15,2013-06-15 16:03:00,
2013-06-15 09:08:00,90.1,48.4,29.76,West,263,8.0,10.0,24,0.00,,,0.00,Wunderground v.1.15,2013-06-15 16:08:00,
2013-06-15 09:13:00,89.9,47.1,29.76,WSW,253,8.0,10.0,23,0.00,,,0.00,Wunderground v.1.15,2013-06-15 16:13:00,
2013-06-15 09:18:00,90.0,48.4,29.76,WSW,252,4.0,10.0,24,0.00,,,0.00,Wunderground v.1.15,2013-06-15 16:18:00,
2013-06-15 09:23:00,90.0,44.8,29.76,WSW,240,6.0,9.0,21,0.00,,,0.00,Wunderground v.1.15,2013-06-15 16:23:00,
2013-06-15 09:28:00,90.1,47.3,29.76,SW,235,8.0,9.0,23,0.00,,,0.00,Wunderground v.1.15,2013-06-15 16:28:00,
2013-06-15 09:33:00,90.6,42.7,29.76,West,278,6.0,10.0,19,0.00,,,0.00,Wunderground v.1.15,2013-06-15 16:33:00,
2013-06-15 09:38:00,91.4,40.5,29.76,SW,229,6.0,11.0,17,0.00,,,0.00,Wunderground v.1.15,2013-06-15 16:38:00,
2013-06-15 09:43:00,91.8,40.8,29.76,West,270,6.0,10.0,17,0.00,,,0.00,Wunderground v.1.15,2013-06-15 16:43:00,
2013-06-15 09:48:00,92.3,39.6,29.76,SSW,210,7.0,11.0,16,0.00,,,0.00,Wunderground v.1.15,2013-06-15 16:48:00,
2013-06-15 09:53:00,92.6,39.9,29.76,WSW,253,7.0,11.0,16,0.00,,,0.00,Wunderground v.1.15,2013-06-15 16:53:00,
2013-06-15 09:58:00,93.1,38.6,29.76,SW,225,9.0,11.0,15,0.00,,,0.00,Wunderground v.1.15,2013-06-15 16:58:00,
2013-06-15 10:03:00,93.8,33.5,29.76,SW,226,9.0,11.0,12,0.00,,,0.00,Wunderground v.1.15,2013-06-15 17:03:00,
2013-06-15 10:08:00,94.3,26.8,29.76,WSW,240,4.0,11.0,9,0.00,,,0.00,Wunderground v.1.15,2013-06-15 17:08:00,
2013-06-15 10:13:00,94.6,29.6,29.76,West,259,9.0,11.0,10,0.00,,,0.00,Wunderground v.1.15,2013-06-15 17:13:00,
2013-06-15 10:18:00,94.7,38.1,29.76,West,263,8.0,11.0,14,0.00,,,0.00,Wunderground v.1.15,2013-06-15 17:18:00,
2013-06-15 10:23:00,94.7,29.7,29.76,WSW,242,5.0,10.0,10,0.00,,,0.00,Wunderground v.1.15,2013-06-15 17:23:00,
2013-06-15 10:28:00,95.5,34.8,29.76,West,265,10.0,11.0,12,0.00,,,0.00,Wunderground v.1.15,2013-06-15 17:28:00,
2013-06-15 10:33:00,95.9,30.6,29.76,SW,222,7.0,10.0,10,0.00,,,0.00,Wunderground v.1.15,2013-06-15 17:33:00,
2013-06-15 10:39:00,95.1,38.4,29.76,West,267,8.0,13.0,14,0.00,,,0.00,Wunderground v.1.15,2013-06-15 17:39:00,
2013-06-15 10:44:00,94.5,44.4,29.76,West,262,6.0,13.0,18,0.00,,,0.00,Wunderground v.1.15,2013-06-15 17:44:00,
2013-06-15 10:49:00,94.4,45.8,29.76,WSW,253,7.0,13.0,19,0.00,,,0.00,Wunderground v.1.15,2013-06-15 17:49:00,
2013-06-15 10:54:00,94.5,41.4,29.76,WSW,255,9.0,10.0,16,0.00,,,0.00,Wunderground v.1.15,2013-06-15 17:54:00,
2013-06-15 10:59:00,94.8,44.7,29.76,West,266,8.0,11.0,18,0.00,,,0.00,Wunderground v.1.15,2013-06-15 17:59:00,
2013-06-15 11:04:00,95.4,34.7,29.76,West,264,7.0,13.0,12,0.00,,,0.00,Wunderground v.1.15,2013-06-15 18:04:00,
2013-06-15 11:08:00,95.5,34.8,29.76,WSW,255,8.0,13.0,12,0.00,,,0.00,Wunderground v.1.15,2013-06-15 18:08:00,
2013-06-15 11:13:00,95.8,37.1,29.76,WSW,253,8.0,12.0,13,0.00,,,0.00,Wunderground v.1.15,2013-06-15 18:13:00,
2013-06-15 11:18:00,96.3,37.5,29.76,West,269,11.0,12.0,13,0.00,,,0.00,Wunderground v.1.15,2013-06-15 18:18:00,
2013-06-15 11:23:00,96.2,42.7,29.76,West,264,6.0,12.0,16,0.00,,,0.00,Wunderground v.1.15,2013-06-15 18:23:00,
2013-06-15 11:28:00,96.2,41.1,29.76,West,260,9.0,12.0,15,0.00,,,0.00,Wunderground v.1.15,2013-06-15 18:28:00,
2013-06-15 11:34:00,96.5,37.6,29.76,West,271,11.0,14.0,13,0.00,,,0.00,Wunderground v.1.15,2013-06-15 18:34:00,
2013-06-15 11:39:00,96.9,37.9,29.76,West,259,8.0,14.0,13,0.00,,,0.00,Wunderground v.1.15,2013-06-15 18:39:00,
2013-06-15 11:44:00,96.7,33.6,29.75,West,277,9.0,16.0,11,0.00,,,0.00,Wunderground v.1.15,2013-06-15 18:44:00,
2013-06-15 11:49:00,96.7,41.4,29.76,West,262,10.0,16.0,15,0.00,,,0.00,Wunderground v.1.15,2013-06-15 18:49:00,
2013-06-15 11:54:00,97.2,31.6,29.76,WNW,285,7.0,12.0,10,0.00,,,0.00,Wunderground v.1.15,2013-06-15 18:54:00,
2013-06-15 11:59:00,97.5,29.2,29.75,WSW,239,9.0,16.0,9,0.00,,,0.00,Wunderground v.1.15,2013-06-15 18:59:00,
2013-06-15 12:04:00,98.0,38.8,29.75,SW,221,11.0,17.0,13,0.00,,,0.00,Wunderground v.1.15,2013-06-15 19:04:00,
2013-06-15 12:09:00,98.8,41.3,29.75,West,277,8.0,17.0,14,0.00,,,0.00,Wunderground v.1.15,2013-06-15 19:09:00,
2013-06-15 12:14:00,99.1,35.4,29.75,West,263,8.0,13.0,11,0.00,,,0.00,Wunderground v.1.15,2013-06-15 19:14:00,
2013-06-15 12:19:00,99.9,42.2,29.75,WSW,242,12.0,13.0,14,0.00,,,0.00,Wunderground v.1.15,2013-06-15 19:19:00,
2013-06-15 12:24:00,99.4,43.6,29.75,West,263,9.0,14.0,15,0.00,,,0.00,Wunderground v.1.15,2013-06-15 19:24:00,
2013-06-15 12:29:00,98.5,46.2,29.75,SW,233,12.0,15.0,17,0.00,,,0.00,Wunderground v.1.15,2013-06-15 19:29:00,
2013-06-15 12:34:00,98.9,37.4,29.75,WSW,240,9.0,16.0,12,0.00,,,0.00,Wunderground v.1.15,2013-06-15 19:34:00,
2013-06-15 12:39:00,99.0,37.5,29.75,SSW,213,11.0,16.0,12,0.00,,,0.00,Wunderground v.1.15,2013-06-15 19:39:00,
2013-06-15 12:44:00,99.0,43.3,29.74,SW,236,14.0,17.0,15,0.00,,,0.00,Wunderground v.1.15,2013-06-15 19:44:00,
2013-06-15 12:49:00,99.3,39.8,29.74,SW,231,9.0,17.0,13,0.00,,,0.00,Wunderground v.1.15,2013-06-15 19:49:00,
2013-06-15 12:54:00,100.3,38.5,29.74,West,269,11.0,14.0,12,0.00,,,0.00,Wunderground v.1.15,2013-06-15 19:54:00,
2013-06-15 12:59:00,100.2,36.2,29.74,WSW,252,7.0,17.0,11,0.00,,,0.00,Wunderground v.1.15,2013-06-15 19:59:00,
2013-06-15 13:04:00,99.8,38.1,29.74,West,263,13.0,19.0,12,0.00,,,0.00,Wunderground v.1.15,2013-06-15 20:04:00,
2013-06-15 13:09:00,100.2,36.2,29.74,West,276,7.0,19.0,11,0.00,,,0.00,Wunderground v.1.15,2013-06-15 20:09:00,
2013-06-15 13:14:00,100.8,38.9,29.74,West,280,9.0,17.0,12,0.00,,,0.00,Wunderground v.1.15,2013-06-15 20:14:00,
2013-06-15 13:19:00,100.7,36.6,29.74,West,263,8.0,18.0,11,0.00,,,0.00,Wunderground v.1.15,2013-06-15 20:19:00,
2013-06-15 13:24:00,100.8,42.9,29.73,WSW,250,15.0,16.0,14,0.00,,,0.00,Wunderground v.1.15,2013-06-15 20:24:00,
2013-06-15 13:29:00,100.9,39.0,29.73,WSW,255,7.0,18.0,12,0.00,,,0.00,Wunderground v.1.15,2013-06-15 20:29:00,
2013-06-15 13:34:00,101.0,39.1,29.73,WSW,252,12.0,16.0,12,0.00,,,0.00,Wunderground v.1.15,2013-06-15 20:34:00,
2013-06-15 13:39:00,101.2,31.9,29.73,SW,226,11.0,16.0,9,0.00,,,0.00,Wunderground v.1.15,2013-06-15 20:39:00,
2013-06-15 13:44:00,101.1,36.9,29.73,WSW,257,11.0,15.0,11,0.00,,,0.00,Wunderground v.1.15,2013-06-15 20:44:00,
2013-06-15 13:49:00,101.6,39.5,29.73,West,262,9.0,16.0,12,0.00,,,0.00,Wunderground v.1.15,2013-06-15 20:49:00,
2013-06-15 13:54:00,101.2,37.0,29.73,West,267,10.0,17.0,11,0.00,,,0.00,Wunderground v.1.15,2013-06-15 20:54:00,
2013-06-15 13:59:00,101.5,34.8,29.73,SW,232,10.0,17.0,10,0.00,,,0.00,Wunderground v.1.15,2013-06-15 20:59:00,
2013-06-15 14:04:00,101.9,37.5,29.72,SW,217,6.0,18.0,11,0.00,,,0.00,Wunderground v.1.15,2013-06-15 21:04:00,
2013-06-15 14:09:00,101.8,37.4,29.72,West,262,5.0,18.0,11,0.00,,,0.00,Wunderground v.1.15,2013-06-15 21:09:00,
2013-06-15 14:14:00,101.8,39.7,29.72,West,270,13.0,15.0,12,0.00,,,0.00,Wunderground v.1.15,2013-06-15 21:14:00,
2013-06-15 14:19:00,101.5,39.4,29.72,West,259,10.0,17.0,12,0.00,,,0.00,Wunderground v.1.15,2013-06-15 21:19:00,
2013-06-15 14:24:00,102.0,37.6,29.71,West,264,12.0,16.0,11,0.00,,,0.00,Wunderground v.1.15,2013-06-15 21:24:00,
2013-06-15 14:29:00,102.2,37.8,29.71,SW,232,10.0,16.0,11,0.00,,,0.00,Wunderground v.1.15,2013-06-15 21:29:00,
2013-06-15 14:34:00,102.1,35.3,29.71,West,259,9.0,13.0,10,0.00,,,0.00,Wunderground v.1.15,2013-06-15 21:34:00,
2013-06-15 14:39:00,102.1,32.6,29.71,West,259,11.0,16.0,9,0.00,,,0.00,Wunderground v.1.15,2013-06-15 21:39:00,
2013-06-15 14:44:00,102.0,35.2,29.71,WSW,240,8.0,15.0,10,0.00,,,0.00,Wunderground v.1.15,2013-06-15 21:44:00,
2013-06-15 14:49:00,103.1,36.0,29.71,West,266,9.0,15.0,10,0.00,,,0.00,Wunderground v.1.15,2013-06-15 21:49:00,
2013-06-15 14:54:00,102.8,35.8,29.70,SSW,212,8.0,14.0,10,0.00,,,0.00,Wunderground v.1.15,2013-06-15 21:54:00,
2013-06-15 14:59:00,102.5,38.0,29.70,SW,233,6.0,15.0,11,0.00,,,0.00,Wunderground v.1.15,2013-06-15 21:59:00,
2013-06-15 15:04:00,102.5,40.2,29.70,WSW,248,10.0,13.0,12,0.00,,,0.00,Wunderground v.1.15,2013-06-15 22:04:00,
2013-06-15 15:09:00,102.2,42.1,29.70,West,263,11.0,15.0,13,0.00,,,0.00,Wunderground v.1.15,2013-06-15 22:09:00,
2013-06-15 15:14:00,101.6,41.6,29.70,West,266,9.0,14.0,13,0.00,,,0.00,Wunderground v.1.15,2013-06-15 22:14:00,
2013-06-15 15:20:00,102.0,32.5,29.70,WSW,243,11.0,14.0,9,0.00,,,0.00,Wunderground v.1.15,2013-06-15 22:20:00,
2013-06-15 15:25:00,103.1,33.4,29.69,West,264,6.0,16.0,9,0.00,,,0.00,Wunderground v.1.15,2013-06-15 22:25:00,
2013-06-15 15:30:00,104.1,34.1,29.69,WSW,248,5.0,16.0,9,0.00,,,0.00,Wunderground v.1.15,2013-06-15 22:30:00,
2013-06-15 15:35:00,104.0,36.7,29.69,WSW,252,6.0,14.0,10,0.00,,,0.00,Wunderground v.1.15,2013-06-15 22:35:00,
2013-06-15 15:40:00,104.1,39.2,29.69,SW,226,8.0,8.0,11,0.00,,,0.00,Wunderground v.1.15,2013-06-15 22:40:00,
2013-06-15 15:45:00,104.4,34.3,29.69,SSW,208,2.0,15.0,9,0.00,,,0.00,Wunderground v.1.15,2013-06-15 22:45:00,
2013-06-15 15:50:00,104.4,34.3,29.69,SSW,201,6.0,8.0,9,0.00,,,0.00,Wunderground v.1.15,2013-06-15 22:50:00,
2013-06-15 15:55:00,104.5,37.1,29.69,WSW,238,6.0,14.0,10,0.00,,,0.00,Wunderground v.1.15,2013-06-15 22:55:00,
2013-06-15 16:00:00,104.1,36.8,29.69,WSW,256,8.0,8.0,10,0.00,,,0.00,Wunderground v.1.15,2013-06-15 23:00:00,
2013-06-15 16:05:00,103.9,41.3,29.69,SW,231,6.0,12.0,12,0.00,,,0.00,Wunderground v.1.15,2013-06-15 23:05:00,
2013-06-15 16:10:00,103.4,36.2,29.69,WSW,248,8.0,8.0,10,0.00,,,0.00,Wunderground v.1.15,2013-06-15 23:10:00,
2013-06-15 16:15:00,104.3,36.9,29.69,South,191,2.0,9.0,10,0.00,,,0.00,Wunderground v.1.15,2013-06-15 23:15:00,
2013-06-15 16:20:00,104.4,31.4,29.69,West,263,10.0,10.0,8,0.00,,,0.00,Wunderground v.1.15,2013-06-15 23:20:00,
2013-06-15 16:25:00,104.3,31.3,29.68,WSW,245,7.0,17.0,8,0.00,,,0.00,Wunderground v.1.15,2013-06-15 23:25:00,
2013-06-15 16:30:00,104.4,24.4,29.68,SW,233,8.0,15.0,6,0.00,,,0.00,Wunderground v.1.15,2013-06-15 23:30:00,
2013-06-15 16:35:00,104.8,20.3,29.68,SW,233,6.0,15.0,5,0.00,,,0.00,Wunderground v.1.15,2013-06-15 23:35:00,
2013-06-15 16:40:00,104.7,31.6,29.68,West,266,7.0,9.0,8,0.00,,,0.00,Wunderground v.1.15,2013-06-15 23:40:00,
2013-06-15 16:45:00,104.8,24.7,29.68,WSW,249,8.0,14.0,6,0.00,,,0.00,Wunderground v.1.15,2013-06-15 23:45:00,
2013-06-15 16:50:00,105.2,25.0,29.68,West,263,4.0,7.0,6,0.00,,,0.00,Wunderground v.1.15,2013-06-15 23:50:00,
2013-06-15 16:55:00,105.1,28.6,29.68,WSW,242,5.0,11.0,7,0.00,,,0.00,Wunderground v.1.15,2013-06-15 23:55:00,
2013-06-15 17:00:00,104.7,24.6,29.68,WSW,252,7.0,12.0,6,0.00,,,0.00,Wunderground v.1.15,2013-06-16 00:00:00,
2013-06-15 17:05:00,104.6,24.5,29.67,WSW,252,7.0,13.0,6,0.00,,,0.00,Wunderground v.1.15,2013-06-16 00:05:00,
2013-06-15 17:10:00,104.5,31.5,29.67,WSW,258,7.0,8.0,8,0.00,,,0.00,Wunderground v.1.15,2013-06-16 00:10:00,
2013-06-15 17:15:00,104.4,20.1,29.67,West,265,11.0,14.0,5,0.00,,,0.00,Wunderground v.1.15,2013-06-16 00:15:00,
2013-06-15 17:20:00,104.5,24.5,29.67,SW,221,10.0,10.0,6,0.00,,,0.00,Wunderground v.1.15,2013-06-16 00:20:00,
2013-06-15 17:25:00,103.3,33.5,29.67,West,266,6.0,11.0,9,0.00,,,0.00,Wunderground v.1.15,2013-06-16 00:25:00,
2013-06-15 17:30:00,103.5,33.7,29.67,West,274,5.0,8.0,9,0.00,,,0.00,Wunderground v.1.15,2013-06-16 00:30:00,
2013-06-15 17:35:00,103.1,33.4,29.67,SW,236,5.0,12.0,9,0.00,,,0.00,Wunderground v.1.15,2013-06-16 00:35:00,
2013-06-15 17:40:00,102.7,26.9,29.67,WSW,255,7.0,11.0,7,0.00,,,0.00,Wunderground v.1.15,2013-06-16 00:40:00,
2013-06-15 17:45:00,103.2,30.5,29.67,WSW,246,11.0,11.0,8,0.00,,,0.00,Wunderground v.1.15,2013-06-16 00:45:00,
2013-06-15 17:50:00,103.2,27.2,29.67,WSW,257,7.0,7.0,7,0.00,,,0.00,Wunderground v.1.15,2013-06-16 00:50:00,
2013-06-15 17:55:00,102.5,32.9,29.67,West,263,6.0,9.0,9,0.00,,,0.00,Wunderground v.1.15,2013-06-16 00:55:00,
2013-06-15 18:00:00,102.5,26.7,29.67,WSW,237,4.0,6.0,7,0.00,,,0.00,Wunderground v.1.15,2013-06-16 01:00:00,
2013-06-15 18:05:00,102.7,30.1,29.67,West,263,5.0,8.0,8,0.00,,,0.00,Wunderground v.1.15,2013-06-16 01:05:00,
2013-06-15 18:10:00,102.3,29.9,29.67,West,262,7.0,7.0,8,0.00,,,0.00,Wunderground v.1.15,2013-06-16 01:10:00,
2013-06-15 18:15:00,100.7,40.9,29.67,West,259,8.0,8.0,13,0.00,,,0.00,Wunderground v.1.15,2013-06-16 01:15:00,
2013-06-15 18:20:00,100.5,40.7,29.67,WSW,257,5.0,5.0,13,0.00,,,0.00,Wunderground v.1.15,2013-06-16 01:20:00,
2013-06-15 18:25:00,101.3,34.7,29.67,SW,225,6.0,7.0,10,0.00,,,0.00,Wunderground v.1.15,2013-06-16 01:25:00,
2013-06-15 18:30:00,102.0,32.5,29.67,WSW,250,8.0,9.0,9,0.00,,,0.00,Wunderground v.1.15,2013-06-16 01:30:00,
2013-06-15 18:35:00,101.7,35.0,29.67,West,271,4.0,9.0,10,0.00,,,0.00,Wunderground v.1.15,2013-06-16 01:35:00,
2013-06-15 18:40:00,101.0,36.8,29.67,West,263,4.0,5.0,11,0.00,,,0.00,Wunderground v.1.15,2013-06-16 01:40:00,
2013-06-15 18:45:00,101.0,34.4,29.68,WSW,243,4.0,6.0,10,0.00,,,0.00,Wunderground v.1.15,2013-06-16 01:45:00,
2013-06-15 18:50:00,101.1,29.0,29.68,WSW,256,3.0,3.0,8,0.00,,,0.00,Wunderground v.1.15,2013-06-16 01:50:00,
2013-06-15 18:55:00,101.1,29.0,29.68,SW,222,2.0,7.0,8,0.00,,,0.00,Wunderground v.1.15,2013-06-16 01:55:00,
2013-06-15 19:00:00,100.6,31.5,29.68,WSW,245,2.0,4.0,9,0.00,,,0.00,Wunderground v.1.15,2013-06-16 02:00:00,
2013-06-15 19:05:00,100.3,33.9,29.68,SW,231,2.0,4.0,10,0.00,,,0.00,Wunderground v.1.15,2013-06-16 02:05:00,
2013-06-15 19:10:00,100.0,33.7,29.68,SW,218,3.0,3.0,10,0.00,,,0.00,Wunderground v.1.15,2013-06-16 02:10:00,
2013-06-15 19:16:00,99.6,30.8,29.68,SW,229,4.0,4.0,9,0.00,,,0.00,Wunderground v.1.15,2013-06-16 02:16:00,
2013-06-15 19:21:00,99.5,27.8,29.68,SSW,204,1.0,1.0,8,0.00,,,0.00,Wunderground v.1.15,2013-06-16 02:21:00,
2013-06-15 19:26:00,99.5,27.8,29.68,SSW,203,1.0,4.0,8,0.00,,,0.00,Wunderground v.1.15,2013-06-16 02:26:00,
2013-06-15 19:31:00,99.1,27.5,29.68,SSE,156,0.0,1.0,8,0.00,,,0.00,Wunderground v.1.15,2013-06-16 02:31:00,
2013-06-15 19:36:00,98.6,30.0,29.68,SE,127,0.0,2.0,9,0.00,,,0.00,Wunderground v.1.15,2013-06-16 02:36:00,
2013-06-15 19:41:00,98.1,29.6,29.68,West,262,0.0,1.0,9,0.00,,,0.00,Wunderground v.1.15,2013-06-16 02:41:00,
2013-06-15 19:46:00,97.4,29.1,29.68,WSW,243,2.0,2.0,9,0.00,,,0.00,Wunderground v.1.15,2013-06-16 02:46:00,
2013-06-15 19:51:00,96.5,28.4,29.68,WSW,240,0.0,1.0,9,0.00,,,0.00,Wunderground v.1.15,2013-06-16 02:51:00,
2013-06-15 19:56:00,95.8,27.9,29.68,SW,230,0.0,3.0,9,0.00,,,0.00,Wunderground v.1.15,2013-06-16 02:56:00,
2013-06-15 20:01:00,95.0,29.9,29.69,West,260,0.0,1.0,10,0.00,,,0.00,Wunderground v.1.15,2013-06-16 03:01:00,
2013-06-15 20:06:00,94.3,31.7,29.69,SSW,211,0.0,2.0,11,0.00,,,0.00,Wunderground v.1.15,2013-06-16 03:06:00,
2013-06-15 20:11:00,93.6,31.2,29.69,SW,214,0.0,1.0,11,0.00,,,0.00,Wunderground v.1.15,2013-06-16 03:11:00,
2013-06-15 20:16:00,93.3,31.0,29.69,SW,226,0.0,2.0,11,0.00,,,0.00,Wunderground v.1.15,2013-06-16 03:16:00,
2013-06-15 20:21:00,92.8,30.6,29.69,WSW,252,0.0,0.0,11,0.00,,,0.00,Wunderground v.1.15,2013-06-16 03:21:00,
2013-06-15 20:26:00,92.3,32.3,29.69,SSW,208,1.0,1.0,12,0.00,,,0.00,Wunderground v.1.15,2013-06-16 03:26:00,
2013-06-15 20:31:00,91.9,32.0,29.69,SE,139,0.0,0.0,12,0.00,,,0.00,Wunderground v.1.15,2013-06-16 03:31:00,
2013-06-15 20:36:00,91.6,31.8,29.70,WSW,239,6.0,6.0,12,0.00,,,0.00,Wunderground v.1.15,2013-06-16 03:36:00,
2013-06-15 20:41:00,92.0,34.1,29.70,South,169,0.0,1.0,13,0.00,,,0.00,Wunderground v.1.15,2013-06-16 03:41:00,
2013-06-15 20:46:00,91.6,33.8,29.70,SSW,210,0.0,1.0,13,0.00,,,0.00,Wunderground v.1.15,2013-06-16 03:46:00,
2013-06-15 20:51:00,91.5,31.7,29.70,SSE,155,1.0,3.0,12,0.00,,,0.00,Wunderground v.1.15,2013-06-16 03:51:00,
2013-06-15 20:56:00,91.4,33.6,29.70,SE,146,0.0,3.0,13,0.00,,,0.00,Wunderground v.1.15,2013-06-16 03:56:00,
2013-06-15 21:01:00,90.8,36.8,29.70,SSE,154,0.0,0.0,15,0.00,,,0.00,Wunderground v.1.15,2013-06-16 04:01:00,
2013-06-15 21:06:00,90.2,34.6,29.70,SE,136,0.0,1.0,14,0.00,,,0.00,Wunderground v.1.15,2013-06-16 04:06:00,
2013-06-15 21:11:00,89.7,35.9,29.70,SSW,212,0.0,1.0,15,0.00,,,0.00,Wunderground v.1.15,2013-06-16 04:11:00,
2013-06-15 21:16:00,89.3,35.6,29.70,ESE,122,0.0,1.0,15,0.00,,,0.00,Wunderground v.1.15,2013-06-16 04:16:00,
2013-06-15 21:21:00,88.8,33.4,29.71,SE,139,0.0,0.0,14,0.00,,,0.00,Wunderground v.1.15,2013-06-16 04:21:00,
2013-06-15 21:26:00,88.7,33.4,29.71,SSE,168,0.0,1.0,14,0.00,,,0.00,Wunderground v.1.15,2013-06-16 04:26:00,
2013-06-15 21:31:00,88.4,33.1,29.71,SE,136,0.0,0.0,14,0.00,,,0.00,Wunderground v.1.15,2013-06-16 04:31:00,
2013-06-15 21:36:00,88.2,33.0,29.71,SE,135,0.0,1.0,14,0.00,,,0.00,Wunderground v.1.15,2013-06-16 04:36:00,
2013-06-15 21:41:00,88.1,32.9,29.72,SE,127,0.0,0.0,14,0.00,,,0.00,Wunderground v.1.15,2013-06-16 04:41:00,
2013-06-15 21:46:00,87.9,34.5,29.72,ESE,120,0.0,0.0,15,0.00,,,0.00,Wunderground v.1.15,2013-06-16 04:46:00,
2013-06-15 21:51:00,87.4,34.1,29.72,ESE,122,0.0,0.0,15,0.00,,,0.00,Wunderground v.1.15,2013-06-16 04:51:00,
2013-06-15 21:56:00,87.0,33.7,29.72,ESE,121,0.0,1.0,15,0.00,,,0.00,Wunderground v.1.15,2013-06-16 04:56:00,
2013-06-15 22:01:00,86.7,31.8,29.72,SE,128,0.0,0.0,14,0.00,,,0.00,Wunderground v.1.15,2013-06-16 05:01:00,
2013-06-15 22:06:00,86.6,31.7,29.72,ESE,119,0.0,1.0,14,0.00,,,0.00,Wunderground v.1.15,2013-06-16 05:06:00,
2013-06-15 22:11:00,86.6,31.7,29.73,ESE,118,0.0,1.0,14,0.00,,,0.00,Wunderground v.1.15,2013-06-16 05:11:00,
2013-06-15 22:16:00,86.7,30.0,29.73,ESE,122,0.0,1.0,13,0.00,,,0.00,Wunderground v.1.15,2013-06-16 05:16:00,
2013-06-15 22:21:00,86.9,30.1,29.73,NW,307,0.0,0.0,13,0.00,,,0.00,Wunderground v.1.15,2013-06-16 05:21:00,
2013-06-15 22:26:00,87.0,28.2,29.73,ESE,120,0.0,1.0,12,0.00,,,0.00,Wunderground v.1.15,2013-06-16 05:26:00,
2013-06-15 22:31:00,87.8,26.7,29.73,SE,131,1.0,2.0,11,0.00,,,0.00,Wunderground v.1.15,2013-06-16 05:31:00,
2013-06-15 22:36:00,88.4,24.9,29.73,ESE,110,0.0,2.0,10,0.00,,,0.00,Wunderground v.1.15,2013-06-16 05:36:00,
2013-06-15 22:41:00,88.6,25.0,29.73,ESE,113,0.0,1.0,10,0.00,,,0.00,Wunderground v.1.15,2013-06-16 05:41:00,
2013-06-15 22:46:00,88.6,22.5,29.73,ESE,108,0.0,2.0,9,0.00,,,0.00,Wunderground v.1.15,2013-06-16 05:46:00,
2013-06-15 22:51:00,88.7,22.6,29.73,SE,131,1.0,1.0,9,0.00,,,0.00,Wunderground v.1.15,2013-06-16 05:51:00,
2013-06-15 22:56:00,88.4,22.4,29.73,SSW,200,0.0,2.0,9,0.00,,,0.00,Wunderground v.1.15,2013-06-16 05:56:00,
2013-06-15 23:01:00,88.0,22.1,29.73,ESE,117,0.0,0.0,9,0.00,,,0.00,Wunderground v.1.15,2013-06-16 06:01:00,
2013-06-15 23:07:00,87.9,22.0,29.73,ESE,115,0.0,1.0,9,0.00,,,0.00,Wunderground v.1.15,2013-06-16 06:07:00,
2013-06-15 23:12:00,88.2,19.4,29.73,East,92,1.0,2.0,8,0.00,,,0.00,Wunderground v.1.15,2013-06-16 06:12:00,
2013-06-15 23:17:00,88.5,19.7,29.74,ESE,105,0.0,2.0,8,0.00,,,0.00,Wunderground v.1.15,2013-06-16 06:17:00,
2013-06-15 23:22:00,88.2,22.2,29.74,NNW,328,0.0,1.0,9,0.00,,,0.00,Wunderground v.1.15,2013-06-16 06:22:00,
2013-06-15 23:26:00,87.8,21.9,29.74,East,101,0.0,1.0,9,0.00,,,0.00,Wunderground v.1.15,2013-06-16 06:26:00,
2013-06-15 23:31:00,87.5,24.2,29.74,SE,129,0.0,1.0,10,0.00,,,0.00,Wunderground v.1.15,2013-06-16 06:31:00,
2013-06-15 23:36:00,87.4,21.6,29.74,WNW,296,0.0,1.0,9,0.00,,,0.00,Wunderground v.1.15,2013-06-16 06:36:00,
2013-06-15 23:41:00,87.3,24.1,29.74,WNW,287,0.0,3.0,10,0.00,,,0.00,Wunderground v.1.15,2013-06-16 06:41:00,
2013-06-15 23:47:00,87.2,26.3,29.74,WNW,295,0.0,3.0,11,0.00,,,0.00,Wunderground v.1.15,2013-06-16 06:47:00,
2013-06-15 23:52:00,86.9,28.2,29.74,West,278,0.0,1.0,12,0.00,,,0.00,Wunderground v.1.15,2013-06-16 06:52:00,
2013-06-15 23:57:00,86.6,27.9,29.74,ESE,107,0.0,1.0,12,0.00,,,0.00,Wunderground v.1.15,2013-06-16 06:57:00,